Regional Weather Roundup
Issued by NWS

Home | Current Version | Previous Version | Graphics & Text | Print | Product List | Glossary On
Versions: 1 2 3 4 5 6 7 8 9 10 11 12 13 14 15 16 17 18 19 20 21 22 23 24 25 26 27 28 29 30 31 32 33 34 35 36 37 38 39 40 41 42 43 44 45 46 47 48 49 50
000
ASUS43 KMPX 120810
RWRMN
WEATHER ROUNDUP FOR MINNESOTA
NATIONAL WEATHER SERVICE TWIN CITIES/CHANHASSEN MN
300 AM CDT SAT JUL 12 2014


NOTE: "FAIR" INDICATES FEW OR NO CLOUDS BELOW 12,000 FEET WITH NO
SIGNIFICANT WEATHER AND/OR OBSTRUCTIONS TO VISIBILITY. N/A MEANS
CURRENT SKY AND/OR WEATHER CONDITIONS ARE NOT AVAILABLE.

MNZ060>063-068>070-120900-
   Twin Cities Metro

CITY           SKY/WX    TMP DP  RH WIND       PRES   REMARKS
TWIN CITIES    CLOUDY    72  69  90 S5        29.98F
ST PAUL        MOCLDY    69  67  93 S5        29.98F
CRYSTAL        MOCLDY    71  68  90 S3        29.97F
BLAINE         MOCLDY    72  70  94 CALM      29.98S
LAKEVILLE      PTCLDY    66  66 100 CALM      29.99F
EDEN PRAIRIE   MOCLDY    70  68  93 S3        29.98S
SOUTH ST PAUL  MOCLDY    69  67  93 CALM      29.98F
LAKE ELMO      FAIR      66  66 100 CALM      29.99F
$$
MNZ001>005-007-008-013>017-022>024-027-028-120900-
   Northwest Minnesota

CITY           SKY/WX    TMP DP  RH WIND       PRES   REMARKS
BEMIDJI        CLEAR     57  52  82 W5        30.02S
HALLOCK        CLEAR     57  54  88 CALM      30.00F
ROSEAU         CLEAR     57  52  82 CALM      30.01S
WARROAD        CLEAR     59  54  82 CALM      30.01S
THIEF RVR FALL CLEAR     61  55  82 CALM      30.02F
CROOKSTON      PTCLDY    55  54  94 CALM      30.03S
FOSSTON        CLEAR     54  50  87 CALM      30.04S
DETROIT LAKES  PTCLDY    66  57  72 CALM      30.05S
MOORHEAD       PTCLDY    64  63  94 CALM      30.03F
PARK RAPIDS    PTCLDY    61  55  81 W3        30.03S
$$
MNZ006-009>011-018-025>026-120900-
   North Central Minnesota

CITY           SKY/WX    TMP DP  RH WIND       PRES   REMARKS
BAUDETTE       CLEAR     59  55  87 VRB3      30.00F
FLAG ISLAND    CLEAR     64  55  72 NW9       29.98S HAZE
INTL FALLS     CLEAR     55  53  93 NW3       29.97F
WASKISH        CLEAR     64  57  77 CALM      30.01S
BIG FORK       CLEAR     55  54  94 CALM      30.01S
LONGVILLE      PTCLDY    61  57  88 CALM      30.01S
GRAND RAPIDS   CLEAR     61  55  82 CALM      30.01R
CRANE LAKE     CLEAR     52  52 100 CALM      29.99S FOG
ORR            CLEAR     57  54  88 CALM      29.97S
COOK           CLEAR     55  55 100 CALM      30.00S
$$
MNZ012-019>021-037-120900-
   Northeast Minnesota

CITY           SKY/WX    TMP DP  RH WIND       PRES   REMARKS
DULUTH         CLOUDY    65  63  93 W7        29.98F FOG
ELY            CLEAR     55  54  94 CALM      29.98S
HIBBING        FOG       53  51  93 CALM      29.99S VSB 1/2
EVELETH        FOG       52  52 100 CALM      30.00S VSB 1/4
DULUTH HARBOR  PTCLDY    66  64  94 SW6       29.97S
TWO HARBORS    FOG       63  57  82 CALM      29.95S VSB 1/2
SILVER BAY     PTCLDY    63  63 100 CALM      29.94S
GRAND MARAIS     N/A     44  43  96 W3        29.92F
G MARAIS ARPRT CLEAR     61  57  88 W6        29.98S
$$
MNZ029>031-032-039>041-046>048-054>057-064-120900-
   West Central Minnesota

CITY           SKY/WX    TMP DP  RH WIND       PRES   REMARKS
FERGUS FALLS   MOCLDY    66  55  68 NE3       30.01F
WHEATON        CLOUDY    66  55  68 N6        30.03S
MORRIS         CLOUDY    70  63  78 N7        30.00S
ALEXANDRIA     CLOUDY    70  58  65 N8        30.03S
ELBOW LAKE     FAIR      68  59  73 NE6       30.01
WADENA         MOCLDY    63  59  88 NW5       30.02F
GLENWOOD       CLOUDY    70  63  78 N7        30.02S
APPLETON       CLOUDY    73  66  78 N8        29.99R
BENSON         CLOUDY    72  66  83 NE8       29.99S
ORTONVILLE     CLOUDY    73  61  64 N12       30.00S
MADISON        MOCLDY    75  70  83 N7        29.99S
WILLMAR        FAIR      73  70  88 N5        30.00S
$$
MNZ033>034-036-042>043-049>051-058-059-120900-
   Central Minnesota

CITY           SKY/WX    TMP DP  RH WIND       PRES   REMARKS
ST CLOUD       FOG       68  66  93 CALM      29.98F VSB 1/4
SAUK CENTRE    FAIR      68  67  97 N3        30.01S FOG
PAYNESVILLE    MOCLDY    68  68  98 NW5       29.99S FOG
AITKIN         MOCLDY    61  55  82 CALM      30.00S HAZE
PINE RIVER     PTCLDY    59  59 100 CALM      30.05S
BRAINERD       MOCLDY    69  61  75 N7        30.01S
STAPLES        MOCLDY    63  57  82 CALM      30.02S
LONG PRAIRIE   FAIR      66  61  82 N3        30.02S
LITTLE FALLS   PTCLDY    64  63  94 CALM      30.00F
LITCHFIELD     MOCLDY    72  72 100 CALM      29.99S FOG
BUFFALO        MOCLDY    70  68  92 CALM      29.99S FOG
MAPLE LAKE     FOG       70  69  99 CALM      30.00S VSB 1
$$
MNZ037-044-045-052-053-120900-
   East Central Minnesota

CITY           SKY/WX    TMP DP  RH WIND       PRES   REMARKS
PRINCETON      FOG       70  66  88 N3        29.98F VSB 1/4
MORA           FOG       64  64 100 CALM      30.00F VSB 1
CAMBRIDGE      PTCLDY    72  63  73 CALM      29.96F HAZE
RUSH CITY      PTCLDY    67  66  94 CALM      29.98F
MOOSE LAKE     MOCLDY    59  57  94 CALM      29.97F FOG
HINCKLEY       FAIR      64  63  94 CALM      29.99S
CLOQUET        PTCLDY    64  63  94 W6        29.99S
MCGREGOR       MOCLDY    63  61  94 NW3       30.00F
$$
MNZ071>073-080-081-089-090-097-098-120900-
   Southwest Minnesota

CITY           SKY/WX    TMP DP  RH WIND       PRES   REMARKS
MONTEVIDEO     CLOUDY    73  70  88 CALM      29.99R
GRANITE FALLS  CLOUDY    71  69  93 SW3       29.99S
CANBY          MOCLDY    73  69  87 NW8       30.01R
MARSHALL       MOCLDY    72  70  94 CALM      29.99R
REDWOOD FALLS  MOCLDY    72  71  97 S5        29.98S FOG
OLIVIA         MOCLDY    72  70  94 SE3       29.98S FOG
PIPESTONE      CLOUDY    70  68  94 SW3       30.04R FOG
WINDOM         MOCLDY    70  68  94 CALM      30.02R FOG
WORTHINGTON    CLOUDY    73  70  88 S9        30.05R
JACKSON        CLOUDY    70  66  88 S5        30.03R FOG
TRACY          MOCLDY    73  71  93 CALM      30.01R FOG
SLAYTON        CLOUDY    70  69  98 CALM      30.04R FOG
$$
MNZ065>067-074>077-082>085-091>093-120900-
   South Central Minnesota

CITY           SKY/WX    TMP DP  RH WIND       PRES   REMARKS
MANKATO        MOCLDY    70  64  83 S5        29.99F
NEW ULM        MOCLDY    70  70 100 CALM      29.98F FOG
ST JAMES       PTCLDY    70  70 100 S5        30.00S FOG
FAIRMONT       MOCLDY    68  64  88 S5        30.01R
GLENCOE        CLOUDY    70  67  90 CALM      29.98S
FARIBAULT      PTCLDY    72  64  78 S5        30.01S HAZE
OWATONNA       PTCLDY    70  66  88 S3        30.01S FOG
WASECA         CLOUDY    68  63  83 S5        30.01F
ALBERT LEA     PTCLDY    70  68  94 CALM      30.01F FOG
$$
MNZ078>079-086>088-094>096-120900-
   Southeast Minnesota

CITY           SKY/WX    TMP DP  RH WIND       PRES   REMARKS
ROCHESTER      CLOUDY    68  66  93 S6        30.03F FOG
RED WING       CLOUDY    72  68  88 CALM      29.98F
STANTON        PTCLDY    69  65  89 S3        29.98F
DODGE CENTER   CLEAR     70  66  88 SW7       30.02S FOG
WINONA         CLOUDY    70  66  88 CALM      30.00F
AUSTIN         CLOUDY    70  68  94 CALM      30.01F FOG
PRESTON        CLOUDY    67  66  96 S5        30.04S FOG
$$
ABBREVIATIONS USED IN REMARKS
   TC - TEMPERATURES IN CELSIUS
  WCI - WIND CHILL INDEX
   HX - HEAT INDEX
  VSB - VISIBILITY
$$



USA.gov is the U.S. government's official web portal to all federal, state and local government web resources and services.